Погода в Пертнурах

Россия / Республика Марий Эл     56°13′44″N   46°25′47″E
темп.,
°C
ветер,
м/с
пор.,
м/с
влажн.,
%
обл.,
%
осадки,
мм/ч
давл.,
гПа
погр.,
м
6 мая, чт
чт600:00+5зюз3680100 0.0 1011169
03:00+5ююз2279100 0.1 101152
06:00+6ююз258655 0.0 1012189
09:00+12ююз347675 0.0 1013564
12:00+16ююз676473 0.0 10131098
15:00+18ююз685486 0.1 10122194
18:00+15ююз61268100 0.0 1012511
21:00+12ю61574100 0.0 1012462
7 мая, пт
пт700:00+11ю61478100 0.0 1012392
03:00+10ю6147898 0.0 1012367
06:00+11ю61477100 0.0 1012447
09:00+12ююз61274100 0.0 1012565
12:00+15ююз71162100 0.0 10121194
15:00+10сз7785100 1.1 1013544
18:00+7зсз2492100 1.5 1015252
21:00+6юз11910 1.6 101710
8 мая, сб
сб800:00+5ю22900 0.0 101823
03:00+5ю229041 0.0 101814
06:00+7юв22825 0.0 1019102
09:00+12вюв56625 0.0 1017797
12:00+15юв68587 0.0 10151318
15:00+17ююв71058100 0.0 10131785
18:00+15ююв357699 0.1 1012133
21:00+12ююв498383 0.1 1010144
9 мая, вс
вс900:00+12ю61475100 0.0 1010351
03:00+12ю71675100 0.1 1009577
06:00+11ю71590100 2.6 1009629
09:00+12юз5990100 3.6 1011553
12:00+10з5782100 0.6 1013657
15:00+9зюз2588100 2.1 1016370
18:00+8зсз2590100 1.8 1018322
21:00+8сз2688100 2.1 1020198
10 мая, пн
пн1000:00+6сз379099 0.0 1022221
03:00+5сз389399 0.0 1025277
06:00+5ссз598924 0.0 1028422
09:00+9с57674 0.0 1029881
12:00+13ссв56470 0.0 10291321
15:00+14ссв44445 0.0 10291611
18:00+13св24595 0.0 1030122
21:00+8всв12660 0.0 103110